Regional Weather Roundup
Issued by NWS

Home | Current Version | Previous Version | Graphics & Text | Print | Product List | Glossary On
Versions: 1 2 3 4 5 6 7 8 9 10 11 12 13 14 15 16 17 18 19 20 21 22 23 24 25 26 27 28 29 30 31 32 33 34 35 36 37 38 39 40 41 42 43 44 45 46 47 48 49 50
901
ASUS45 KCYS 272210
RWRWY

WYOMING REGIONAL WEATHER ROUNDUP
NATIONAL WEATHER SERVICE CHEYENNE WY
400 PM MDT FRI MAY 27 2016

NOTE:  "FAIR" INDICATES FEW OR NO CLOUDS BELOW 12,000 FEET
WITH NO SIGNIFICANT WEATHER AND/OR OBSTRUCTIONS TO VISIBILITY.

WYZ001-272300-
YELLOWSTONE NATIONAL PARK

CITY           SKY/WX    TMP DP  RH WIND       PRES   REMARKS
LK YELLOWSTONE   N/A     48  36  63 E6        30.00F
W YELLOWSTONE  NOT AVBL

$$
WYZ002>013-054>058-071-098>099-272300-
NORTHERN WYOMING

CITY           SKY/WX    TMP DP  RH WIND       PRES   REMARKS
JACKSON        PTSUNNY   55  37  50 W7        29.96S
CODY           PTSUNNY   63  43  48 SE13G20   29.83S
GREYBULL       FAIR      70  36  28 W6        29.78F
WORLAND        FAIR      69  34  27 VRB3      29.80F
SHERIDAN       PTSUNNY   65  48  54 W12       29.83F
BUFFALO        LGT RAIN  53  47  79 SW10      29.89F
GILLETTE       PTSUNNY   64  42  44 E6        29.86R
HULETT         CLOUDY    63  45  51 CALM      29.87F
NEWCASTLE      FAIR      64  32  29 NW8G18    29.85F

$$
WYZ014>020-022>026-101>103-272300-
CENTRAL WYOMING

CITY           SKY/WX    TMP DP  RH WIND       PRES   REMARKS
BIG PINEY      CLOUDY    54  38  54 E14       29.96S THUNDER
PINEDALE       MOCLDY    55  30  38 NW15G28   29.95F
DUBOIS         MOCLDY    59  25  27 W13G21    29.92R
LANDER         FAIR      67  35  30 SE9       29.83F
RIVERTON       PTSUNNY   68  35  29 NE8       29.85F
CASPER         FAIR      62  36  37 E3        29.86F
DOUGLAS          N/A    N/A N/A N/A MISG      29.86F

$$
WYZ021-027>030-104>119-272300-
SOUTHERN WYOMING

CITY           SKY/WX    TMP DP  RH WIND       PRES   REMARKS
EVANSTON       FAIR      55  37  50 S10       30.00F
KEMMERER         N/A     55  32  41 S8G17     29.98S
FORT BRIDGER   CLOUDY    59  36  41 NW14      30.00F
ROCK SPRINGS   CLOUDY    58  36  43 SW9       29.93F
DIXON          FAIR      60  33  36 N9        29.95S
RAWLINS        CLOUDY    57  29  34 NE20G28   29.92F
SARATOGA       FAIR      55  36  47 E12       29.94F
LARAMIE        PTSUNNY   55  35  47 NE13      29.92F
CHEYENNE       FAIR      53  42  66 E10       29.92S
TORRINGTON     LGT RAIN  57  47  69 SE10      29.87S
PINE BLUFFS    FAIR      54  43  66 E10       29.90F

$$




USA.gov is the U.S. government's official web portal to all federal, state and local government web resources and services.